Weather reports worldwide

Advertisment
Tholey, Germany (10706): temperature & dewpoint: 16.09.2019 23:00:00 - 22.09.2019 23:00:00 (CEST)Tholey, Germany (10706): temperature 5cm & temperature -5cm: 16.09.2019 23:00:00 - 22.09.2019 23:00:00 (CEST)Tholey, Germany (10706): temperature -20cm & temperature -100cm: 16.09.2019 23:00:00 - 22.09.2019 23:00:00 (CEST)Tholey, Germany (10706): wind speed & gusts: 16.09.2019 23:00:00 - 22.09.2019 23:00:00 (CEST)Tholey, Germany (10706): wind direction: 16.09.2019 23:00:00 - 22.09.2019 23:00:00 (CEST)Tholey, Germany (10706): reduced air pressure: 16.09.2019 23:00:00 - 22.09.2019 23:00:00 (CEST)Tholey, Germany (10706): visibility: 16.09.2019 23:00:00 - 22.09.2019 23:00:00 (CEST)Tholey, Germany (10706): sunshine duration: 16.09.2019 23:00:00 - 22.09.2019 23:00:00 (CEST)Tholey, Germany (10706): precipitation: 16.09.2019 23:00:00 - 22.09.2019 23:00:00 (CEST)
Date & Time tt [°C] td [°C] tt 5cm [°C] tt -5cm [°C] tt -20cm [°C] tt -100cm [°C] ff [km/h] ff [kn] fx [km/h] fx [kn] dd ppp [hPa] vv [km] sd [min] rr [mm]
22.09.2019 23:00:00 16,7 14,5 15,5 18,4 18,4 17,0 23 12 42 23 W 1010,2 47 0 0,1
22.09.2019 22:00:00 17,8 15,1 17,4 19,0 18,5 17,0 13 7 24 13 W 1009,7 45 0 0,0
22.09.2019 21:00:00 19,5 13,7 18,8 19,4 18,5 17,0 13 7 24 13 W 1009,2 58 0 0,0
22.09.2019 20:00:00 19,9 12,0 18,1 20,2 18,5 17,0 8 4 17 9 W 1008,7 58 0 0,0
22.09.2019 19:00:00 21,8 11,8 20,3 21,6 18,4 17,0 8 5 19 10 E 1007,9 59 0 0,0
22.09.2019 18:00:00 22,9 11,9 23,1 22,9 18,1 17,0 12 7 17 9 ESE 1007,7 56 3 0,0
22.09.2019 17:00:00 22,8 11,5 23,8 24,2 17,7 17,0 13 7 19 10 ESE 1008,1 67 35 0,0
22.09.2019 16:00:00 23,1 11,2 27,5 24,5 17,2 17,0 9 5 16 9 ESE 1008,4 74 23 0,0
22.09.2019 15:00:00 22,9 10,9 25,9 24,3 16,7 17,0 7 4 14 8 SSE 1008,9 50 27 0,0
22.09.2019 14:00:00 21,1 9,8 25,2 22,9 16,3 17,0 8 4 18 10 ENE 1009,7 74 40 0,0
22.09.2019 13:00:00 19,9 9,3 24,7 21,0 15,9 17,0 11 6 17 9 E 1010,6 53 49 0,0
22.09.2019 12:00:00 17,9 8,3 21,8 18,2 15,8 17,0 8 4 13 7 E 1011,4 75 13 0,0
22.09.2019 11:00:00 16,0 7,6 17,5 16,2 15,7 17,0 7 4 18 10 E 1012,1 56 0 0,0
22.09.2019 10:00:00 15,1 7,0 16,1 15,2 15,7 17,0 12 6 16 9 ENE 1012,1 56 0 0,0
22.09.2019 09:00:00 14,3 6,2 14,9 14,1 15,8 17,0 10 6 16 9 NE 1012,3 48 43 0,0
22.09.2019 08:00:00 12,7 5,4 12,0 13,0 15,9 17,0 13 7 18 10 NE 1012,3 62 13 0,0
22.09.2019 07:00:00 12,9 5,3 11,0 13,2 16,1 17,0 13 7 18 10 ENE 1012,4 65 0 0,0
22.09.2019 06:00:00 13,6 5,3 11,7 13,4 16,3 17,0 12 7 19 11 NE 1012,6 70 0 0,0
22.09.2019 05:00:00 13,8 5,2 11,8 13,7 16,5 17,1 14 8 19 11 NE 1013,0 65 0 0,0
22.09.2019 04:00:00 14,3 5,4 12,2 14,0 16,6 17,1 13 7 20 11 NE 1013,2 73 0 0,0
22.09.2019 03:00:00 14,5 5,2 12,5 14,4 16,8 17,1 15 8 23 12 NE 1013,3 64 0 0,0
22.09.2019 02:00:00 15,6 5,0 13,4 14,7 17,0 17,1 17 9 24 13 NE 1013,3 68 0 0,0
22.09.2019 01:00:00 16,0 4,2 14,0 15,1 17,2 17,1 17 9 22 12 NE 1013,1 64 0 0,0
22.09.2019 00:00:00 16,7 3,5 14,6 15,5 17,5 17,1 16 9 23 12 ENE 1014,0 61 0 0,0
21.09.2019 23:00:00 17,2 3,2 14,7 16,0 17,7 17,1 16 9 23 13 ENE 1014,6 75 0 0,0
21.09.2019 22:00:00 17,0 2,9 14,7 16,7 17,9 17,1 16 8 23 13 ENE 1014,8 73 0 0,0
21.09.2019 21:00:00 17,5 3,5 15,0 17,7 18,1 17,1 17 9 22 12 ENE 1015,0 62 0 0,0
21.09.2019 20:00:00 18,1 3,7 15,7 19,2 18,1 17,1 14 8 24 13 ENE 1015,0 67 30 0,0
21.09.2019 19:00:00 20,0 3,5 19,2 21,4 18,0 17,1 13 7 27 15 ENE 1014,8 59 60 0,0
21.09.2019 18:00:00 21,5 3,5 22,5 23,4 17,6 17,1 14 7 25 13 E 1015,0 61 60 0,0
21.09.2019 17:00:00 22,5 1,8 25,1 24,7 17,1 17,1 16 9 25 14 E 1015,3 75 60 0,0
21.09.2019 16:00:00 22,7 1,9 26,8 25,0 16,6 17,2 16 9 27 15 E 1015,9 74 60 0,0
21.09.2019 15:00:00 21,3 2,3 25,8 24,5 16,0 17,2 17 9 27 14 E 1016,7 53 60 0,0
21.09.2019 14:00:00 21,1 3,2 26,5 23,2 15,4 17,2 16 8 29 16 ESE 1017,7 75 60 0,0
21.09.2019 13:00:00 18,4 2,7 23,1 21,3 15,0 17,2 18 10 28 15 E 1019,0 54 60 0,0
21.09.2019 12:00:00 16,2 2,7 20,4 18,9 14,6 17,2 18 10 26 14 E 1019,8 57 60 0,0
21.09.2019 11:00:00 15,0 2,8 18,9 16,2 14,5 17,2 14 8 23 13 E 1020,6 60 60 0,0
21.09.2019 10:00:00 13,1 2,2 15,6 13,5 14,5 17,2 14 8 26 14 E 1020,8 73 60 0,0
21.09.2019 09:00:00 11,3 2,0 12,4 11,5 14,6 17,2 13 7 29 16 ENE 1021,2 46 60 0,0
21.09.2019 08:00:00 10,2 1,5 9,5 10,8 14,8 17,2 17 9 31 17 ENE 1021,3 72 24 0,0
21.09.2019 07:00:00 10,7 1,6 9,2 10,9 14,9 17,2 22 12 32 17 ENE 1020,9 62 0 0,0
21.09.2019 06:00:00 10,7 1,7 8,9 11,1 15,1 17,2 21 11 31 17 ENE 1021,1 66 0 0,0
21.09.2019 05:00:00 11,0 1,8 9,3 11,4 15,3 17,2 20 11 34 18 ENE 1021,5 52 0 0,0
21.09.2019 04:00:00 11,0 1,9 9,3 11,6 15,5 17,2 17 9 28 15 ENE 1022,1 67 0 0,0
21.09.2019 03:00:00 11,3 1,9 8,9 12,0 15,7 17,3 13 7 28 15 ENE 1022,3 60 0 0,0
21.09.2019 02:00:00 11,6 1,6 9,8 12,3 16,0 17,3 18 10 28 15 ENE 1022,8 57 0 0,0
21.09.2019 01:00:00 12,1 1,4 10,3 12,7 16,2 17,3 19 10 30 16 ENE 1023,1 66 0 0,0
21.09.2019 00:00:00 12,3 1,4 10,4 13,0 16,4 17,3 16 9 25 14 ENE 1023,6 60 0 0,0
20.09.2019 23:00:00 12,2 1,5 10,2 13,7 16,7 17,3 16 9 27 15 E 1023,9 65 0 0,0
20.09.2019 22:00:00 12,8 1,5 10,9 14,5 16,9 17,3 15 8 31 17 ENE 1024,4 59 0 0,0
20.09.2019 21:00:00 13,2 1,8 11,6 15,4 17,1 17,3 20 11 31 17 ENE 1024,6 66 0 0,0
20.09.2019 20:00:00 14,5 2,2 13,0 16,7 17,1 17,3 21 11 31 17 ENE 1024,5 57 26 0,0
20.09.2019 19:00:00 15,9 1,5 15,4 18,4 17,1 17,3 22 12 37 20 E 1024,3 72 60 0,0
20.09.2019 18:00:00 16,6 1,5 17,2 20,0 16,8 17,3 24 13 37 20 E 1024,3 57 60 0,0
20.09.2019 17:00:00 17,0 1,0 18,5 21,6 16,4 17,3 21 12 38 20 ENE 1024,7 64 60 0,0
20.09.2019 16:00:00 17,3 0,1 21,2 22,2 16,0 17,3 25 14 40 22 E 1025,3 55 60 0,0
20.09.2019 15:00:00 17,3 0,8 21,8 21,9 15,5 17,3 21 12 33 18 E 1025,8 2,9 60 0,0
20.09.2019 14:00:00 16,5 2,6 21,2 20,7 15,0 17,3 19 10 37 20 E 1026,5 50 60 0,0
20.09.2019 13:00:00 15,3 1,2 19,5 18,8 14,6 17,3 24 13 41 22 E 1027,3 53 60 0,0
20.09.2019 12:00:00 13,8 1,5 17,6 16,9 14,4 17,3 21 11 39 21 E 1027,9 48 59 0,0
20.09.2019 11:00:00 12,7 1,5 15,9 14,4 14,2 17,4 24 13 39 21 E 1028,5 49 60 0,0
20.09.2019 10:00:00 10,9 1,5 12,8 12,3 14,3 17,4 20 11 32 18 E 1028,7 59 60 0,0
20.09.2019 09:00:00 9,1 1,4 10,6 10,3 14,4 17,4 13 7 20 11 ENE 1028,8 75 60 0,0
20.09.2019 08:00:00 6,8 1,4 6,0 9,3 14,7 17,4 9 5 22 12 ENE 1028,9 65 15 0,0
20.09.2019 07:00:00 7,6 1,1 5,9 9,5 14,9 17,4 16 9 23 13 ENE 1028,6 58 0 0,0
20.09.2019 06:00:00 7,5 1,2 5,9 9,8 15,1 17,4 18 10 24 13 ENE 1028,6 59 0 0,0
20.09.2019 05:00:00 7,7 1,2 6,2 10,1 15,4 17,4 16 8 28 15 ENE 1028,7 65 0 0,0
20.09.2019 04:00:00 8,1 1,4 6,5 10,3 15,7 17,4 18 10 26 14 NE 1028,8 60 0 0,0
20.09.2019 03:00:00 8,3 1,5 6,7 10,7 16,0 17,4 15 8 27 14 ENE 1029,2 64 0 0,0
20.09.2019 02:00:00 8,0 1,5 5,5 11,2 16,2 17,4 10 5 23 12 ENE 1029,7 58 0 0,0
20.09.2019 01:00:00 9,2 1,2 7,6 11,9 16,6 17,4 17 9 23 13 NE 1029,6 68 0 0,0
20.09.2019 00:00:00 9,5 1,5 7,3 12,4 16,9 17,4 13 7 20 11 NE 1029,6 60 0 0,0
19.09.2019 23:00:00 10,2 1,6 8,1 13,1 17,2 17,4 12 6 20 11 ENE 1029,5 71 0 0,0
19.09.2019 22:00:00 10,9 1,7 8,9 14,1 17,4 17,4 14 7 21 11 ENE 1029,4 60 0 0,0
19.09.2019 21:00:00 11,7 1,4 9,9 15,2 17,7 17,4 15 8 21 12 ENE 1028,7 65 0 0,0
19.09.2019 20:00:00 12,6 1,2 10,9 16,8 17,8 17,4 13 7 24 13 ENE 1028,3 67 36 0,0
19.09.2019 19:00:00 14,1 1,1 14,2 18,9 17,7 17,4 18 10 31 17 E 1027,7 75 60 0,0
19.09.2019 18:00:00 15,0 1,2 16,4 20,6 17,5 17,4 17 9 31 17 ENE 1027,7 60 60 0,0
19.09.2019 17:00:00 15,6 0,9 19,0 21,9 17,1 17,4 16 9 33 18 ENE 1027,7 68 60 0,0
19.09.2019 16:00:00 15,5 0,7 19,7 22,3 16,7 17,4 22 12 35 19 NE 1028,0 51 60 0,0
19.09.2019 15:00:00 15,0 1,0 20,5 22,3 16,2 17,4 17 9 36 19 ENE 1028,2 49 60 0,0
19.09.2019 14:00:00 15,1 1,4 20,3 21,4 15,8 17,5 18 10 33 18 E 1028,7 61 60 0,0
19.09.2019 13:00:00 13,9 2,1 18,8 19,7 15,4 17,5 18 10 35 19 ENE 1029,1 63 60 0,0
19.09.2019 12:00:00 13,0 2,6 18,3 17,9 15,1 17,5 20 11 34 19 NE 1029,3 66 58 0,0
19.09.2019 11:00:00 12,6 4,0 17,1 15,3 15,0 17,5 18 10 32 18 ENE 1029,4 74 60 0,0
19.09.2019 10:00:00 10,6 4,8 13,0 12,8 15,1 17,5 16 9 27 14 ENE 1029,3 59 60 0,0
19.09.2019 09:00:00 8,6 4,3 10,0 10,9 15,3 17,5 18 10 30 16 ENE 1029,1 56 60 0,0
19.09.2019 08:00:00 7,5 4,2 6,9 10,1 15,5 17,5 17 9 25 13 NE 1028,8 43 20 0,0
19.09.2019 07:00:00 6,9 4,2 5,0 10,3 15,7 17,5 14 8 23 12 NE 1028,2 51 0 0,0
19.09.2019 06:00:00 7,2 4,1 5,5 10,7 16,0 17,5 16 8 25 14 NE 1028,0 48 0 0,0
19.09.2019 05:00:00 7,9 4,2 6,2 11,1 16,3 17,5 20 11 29 15 NE 1027,8 53 0 0,0
19.09.2019 04:00:00 8,1 4,1 6,2 11,5 16,5 17,5 14 8 26 14 NE 1027,8 52 0 0,0
19.09.2019 03:00:00 8,6 4,1 6,4 11,8 16,8 17,5 13 7 20 11 NE 1027,8 52 0 0,0
19.09.2019 02:00:00 9,0 3,8 7,0 12,3 17,1 17,5 13 7 19 10 ENE 1027,5 53 0 0,0
19.09.2019 01:00:00 9,5 3,5 7,4 12,9 17,4 17,5 14 7 22 12 ENE 1027,4 56 0 0,0
19.09.2019 00:00:00 10,4 3,3 8,2 13,5 17,8 17,5 16 8 24 13 NE 1026,9 52 0 0,0
18.09.2019 23:00:00 10,8 2,8 8,8 14,3 18,1 17,5 16 8 31 17 NE 1026,6 49 0 0,0
18.09.2019 22:00:00 11,5 2,6 9,6 15,1 18,4 17,5 18 10 31 17 NNE 1026,2 56 0 0,0
18.09.2019 21:00:00 12,4 3,0 10,5 16,3 18,6 17,5 18 10 30 16 NNE 1025,9 46 0 0,0
18.09.2019 20:00:00 13,1 2,7 11,1 17,9 18,7 17,5 15 8 29 16 NNE 1025,2 46 34 0,0
18.09.2019 19:00:00 14,6 2,5 15,0 20,0 18,6 17,5 19 10 28 15 NE 1024,6 53 60 0,0
18.09.2019 18:00:00 16,0 2,7 18,6 22,0 18,4 17,5 15 8 26 14 NE 1024,1 48 60 0,0
18.09.2019 17:00:00 16,7 2,1 21,5 23,5 18,0 17,5 15 8 29 16 NE 1024,0 54 60 0,0
18.09.2019 16:00:00 16,5 2,3 22,7 23,8 17,5 17,5 12 6 27 14 ENE 1024,2 51 60 0,0
18.09.2019 15:00:00 15,5 2,0 22,2 23,3 17,0 17,5 16 8 33 18 ENE 1024,6 75 60 0,0
18.09.2019 14:00:00 15,8 2,4 21,0 22,1 16,6 17,5 17 9 33 18 E 1024,9 64 60 0,0
18.09.2019 13:00:00 14,6 3,3 20,5 20,3 16,3 17,5 21 11 35 19 E 1025,5 61 60 0,0
18.09.2019 12:00:00 13,8 2,6 19,3 18,2 16,0 17,5 19 10 37 20 ENE 1025,8 49 60 0,0
18.09.2019 11:00:00 12,3 3,0 16,5 15,8 16,0 17,5 21 11 33 18 E 1026,0 58 60 0,0
18.09.2019 10:00:00 11,3 5,5 14,4 13,3 16,1 17,5 16 9 31 17 ENE 1026,1 50 60 0,0
18.09.2019 09:00:00 8,7 4,5 10,3 11,5 16,3 17,4 20 11 28 15 NE 1025,9 30 60 0,0
18.09.2019 08:00:00 7,0 4,1 6,4 10,7 16,6 17,4 11 6 23 12 ENE 1026,0 31 21 0,0
18.09.2019 07:00:00 6,7 4,1 5,0 10,9 16,9 17,4 15 8 25 14 ENE 1025,9 32 0 0,0
18.09.2019 06:00:00 6,9 4,1 5,2 11,4 17,3 17,4 17 9 25 13 NE 1025,4 31 0 0,0
18.09.2019 05:00:00 7,5 4,2 5,8 11,9 17,6 17,4 16 9 27 14 ENE 1025,3 35 0 0,0
18.09.2019 04:00:00 8,1 4,1 6,4 12,5 18,0 17,4 21 11 29 16 NE 1025,0 34 0 0,0
18.09.2019 03:00:00 8,6 4,0 6,7 13,2 18,3 17,4 14 7 30 16 ENE 1024,9 39 0 0,0
18.09.2019 02:00:00 9,6 3,8 7,7 13,9 18,7 17,4 17 9 29 16 NNE 1024,8 38 0 0,0
18.09.2019 01:00:00 10,5 6,2 8,9 14,8 19,0 17,4 16 9 27 15 NE 1024,3 34 0 0,0
18.09.2019 00:00:00 11,6 6,0 9,9 15,6 19,3 17,4 14 8 24 13 NNE 1023,6 41 0 0,0
17.09.2019 23:00:00 13,0 5,9 11,1 16,4 19,7 17,4 11 6 19 10 N 1023,0 45 0 0,0
17.09.2019 22:00:00 13,7 5,5 11,3 17,3 20,0 17,4 9 5 21 12 N 1022,5 50 0 0,0
17.09.2019 21:00:00 14,4 5,4 12,9 18,6 20,2 17,4 16 9 32 17 N 1022,0 50 0 0,0
17.09.2019 20:00:00 15,7 6,0 14,3 20,3 20,4 17,4 16 9 29 16 N 1020,9 52 32 0,0
17.09.2019 19:00:00 17,7 5,8 18,0 22,5 20,3 17,4 10 5 29 16 NNW 1020,0 50 60 0,0
17.09.2019 18:00:00 18,9 4,2 20,6 24,3 20,1 17,4 11 6 29 15 NNW 1019,6 64 60 0,0
17.09.2019 17:00:00 19,5 6,1 22,4 25,7 19,7 17,4 13 7 26 14 WNW 1019,5 58 60 0,0
17.09.2019 16:00:00 19,8 6,7 24,1 26,2 19,3 17,4 8 4 26 14 NNW 1019,3 75 60 0,0
17.09.2019 15:00:00 18,3 7,3 24,0 25,9 18,8 17,4 13 7 25 14 NW 1019,9 75 60 0,0
17.09.2019 14:00:00 18,6 7,7 23,8 24,9 18,4 17,4 11 6 22 12 W 1020,1 75 51 0,0
17.09.2019 13:00:00 16,3 7,4 19,0 22,9 18,1 17,4 10 6 22 12 WNW 1020,9 35 43 0,0
17.09.2019 12:00:00 15,8 7,6 19,1 20,0 18,0 17,4 11 6 28 15 WNW 1021,2 75 18 0,0
17.09.2019 11:00:00 15,5 7,5 18,3 18,8 18,0 17,4 12 7 21 12 N 1021,0 65 21 0,0
17.09.2019 10:00:00 14,8 7,9 17,4 17,2 18,0 17,4 8 5 14 8 N 1020,9 70 20 0,0
17.09.2019 09:00:00 13,6 8,7 14,2 16,2 18,2 17,4 8 4 18 10 N 1020,8 73 0 0,0
17.09.2019 08:00:00 13,1 9,0 13,2 16,1 18,3 17,4 7 4 16 8 NNE 1020,8 68 0 0,0
17.09.2019 07:00:00 13,1 9,4 13,1 16,4 18,5 17,4 8 5 16 9 NNE 1020,3 66 0 0,0
17.09.2019 06:00:00 13,6 10,2 13,5 16,8 18,6 17,4 10 6 22 12 NNE 1020,0 60 0 0,0
17.09.2019 05:00:00 14,3 12,4 13,9 17,2 18,8 17,4 7 4 15 8 ENE 1019,8 31 0 0,0
17.09.2019 04:00:00 15,5 12,4 15,3 17,6 18,9 17,4 5 3 11 6 NE 1019,5 19 0 0,0
17.09.2019 03:00:00 15,7 12,1 15,4 17,8 19,0 17,4 5 3 13 7 NE 1019,5 28 0 0,0
17.09.2019 02:00:00 16,2 11,9 15,9 18,1 19,2 17,4 7 4 13 7 ENE 1019,3 43 0 0,0
17.09.2019 01:00:00 17,1 12,3 16,5 18,3 19,3 17,4 6 3 19 10 N 1019,2 62 0 0,0
17.09.2019 00:00:00 17,8 12,2 16,9 18,7 19,5 17,4 6 3 19 10 NW 1019,0 67 0 0,0
16.09.2019 23:00:00 18,0 12,0 17,2 19,1 19,6 17,4 5 3 23 12 NW 1018,9 60 0 0,0

tt = temperature
td = dewpoint
tt 5cm = temperature 5cm
tt -5cm = temperature -5cm
tt -20cm = temperature -20cm
tt -100cm = temperature -100cm
ff = wind speed
fx = gusts
dd = wind direction
ppp = reduced air pressure
vv = visibility
sd = sunshine duration
rr = precipitation

Next stations